| time (UTC) | temp C | wind direction | speed KPH | gust KPH | rain 1hr cm | rain 24hr cm | rain mn cm | humidity % | barometer mb |
| 20260502183247 | 9 | 191 | 1.6 | 6.4 | 0.00 | 0.30 | 0.30 | 91 | 1009.0 |
| 20260502181742 | 8 | 174 | 0.0 | 6.4 | 0.00 | 0.30 | 0.30 | 90 | 1009.3 |
| 20260502180240 | 8 | 102 | 0.0 | 6.4 | 0.00 | 0.30 | 0.30 | 87 | 1009.4 |
| 20260502170229 | 8 | 186 | 0.0 | 0.0 | 0.00 | 0.30 | 0.30 | 85 | 1009.1 |
| 20260502163222 | 8 | 186 | 1.6 | 6.4 | 0.00 | 0.30 | 0.30 | 89 | 1009.3 |
| 20260502161715 | 7 | 180 | 0.0 | 3.2 | 0.00 | 0.30 | 0.30 | 93 | 1009.4 |
| 20260502160218 | 7 | 180 | 0.0 | 1.6 | 0.00 | 0.30 | 0.30 | 92 | 1009.7 |
| 20260502150204 | 7 | 180 | 0.0 | 0.0 | 0.08 | 0.30 | 0.30 | 93 | 1009.9 |
| 20260502130155 | 5 | 177 | 0.0 | 4.8 | 0.00 | 0.23 | 0.23 | 96 | 1010.5 |
| 20260502123156 | 5 | 20 | 0.0 | 0.0 | 0.00 | 0.23 | 0.23 | 96 | 1010.6 |
| 20260502121653 | 5 | 18 | 0.0 | 0.0 | 0.00 | 0.23 | 0.23 | 96 | 1010.6 |
| 20260502120155 | 5 | 18 | 0.0 | 0.0 | 0.00 | 0.23 | 0.23 | 96 | 1010.5 |
| 20260502114653 | 4 | 18 | 0.0 | 0.0 | 0.00 | 0.23 | 0.23 | 96 | 1010.5 |
| 20260502113153 | 4 | 18 | 0.0 | 0.0 | 0.00 | 0.23 | 0.23 | 96 | 1010.6 |
| 20260502111648 | 4 | 18 | 0.0 | 0.0 | 0.00 | 0.23 | 0.23 | 96 | 1010.6 |
| 20260502110146 | 4 | 18 | 0.0 | 0.0 | 0.03 | 0.23 | 0.23 | 96 | 1010.5 |
| 20260502104639 | 4 | 18 | 0.0 | 0.0 | 0.03 | 0.23 | 0.23 | 96 | 1010.4 |
| 20260502103141 | 4 | 18 | 0.0 | 0.0 | 0.03 | 0.23 | 0.23 | 96 | 1010.1 |
| 20260502101632 | 4 | 18 | 0.0 | 0.0 | 0.05 | 0.23 | 0.23 | 96 | 1009.8 |
| 20260502100132 | 4 | 18 | 0.0 | 0.0 | 0.05 | 0.20 | 0.20 | 96 | 1009.8 |
| 20260502090120 | 3 | 18 | 0.0 | 0.0 | 0.05 | 0.15 | 0.15 | 95 | 1010.0 |
| 20260502070117 | 3 | 18 | 0.0 | 0.0 | 0.03 | 0.03 | 0.03 | 91 | 1010.5 |
| 20260502064614 | 3 | 18 | 0.0 | 0.0 | 0.03 | 0.03 | 0.03 | 89 | 1010.5 |
| 20260502063846 | 3 | 18 | 0.0 | 0.0 | 0.00 | 0.00 | 0.00 | 87 | 1010.6 |
| 20260502062350 | 3 | 18 | 0.0 | 0.0 | 0.00 | 0.00 | 0.00 | 86 | 1010.9 |
| 20260502061614 | 3 | 18 | 0.0 | 0.0 | 0.00 | 0.00 | 0.00 | 86 | 1010.6 |
| 20260502055347 | 4 | 18 | 0.0 | 0.0 | 0.00 | 0.00 | 0.00 | 86 | 1010.9 |
| 20260502053112 | 3 | 18 | 0.0 | 0.0 | 0.00 | 0.00 | 0.00 | 83 | 1010.8 |
| 20260502051612 | 4 | 18 | 0.0 | 0.0 | 0.00 | 0.00 | 0.00 | 85 | 1010.7 |
| 20260502050108 | 3 | 13 | 0.0 | 0.0 | 0.00 | 0.00 | 0.00 | 85 | 1010.6 |
| 20260502045339 | 3 | 13 | 0.0 | 0.0 | 0.00 | 0.00 | 0.00 | 85 | 1010.5 |
| 20260502043108 | 3 | 13 | 0.0 | 0.0 | 0.00 | 0.00 | 0.00 | 85 | 1010.6 |
| 20260502042456 | 3 | 13 | 0.0 | 0.0 | 0.00 | 0.00 | 0.00 | 83 | 1010.6 |
| 20260502041607 | 3 | 13 | 0.0 | 0.0 | 0.00 | 0.00 | 0.00 | 84 | 1010.5 |
| 20260502040838 | 3 | 13 | 0.0 | 0.0 | 0.00 | 0.00 | 0.00 | 83 | 1010.6 |
| 20260502033104 | 3 | 13 | 0.0 | 0.0 | 0.00 | 0.00 | 0.00 | 83 | 1010.5 |
| 20260502031603 | 3 | 13 | 0.0 | 0.0 | 0.00 | 0.00 | 0.00 | 83 | 1010.4 |
| 20260502024600 | 4 | 13 | 0.0 | 0.0 | 0.00 | 0.00 | 0.00 | 81 | 1010.4 |
| 20260502023100 | 5 | 13 | 0.0 | 0.0 | 0.00 | 0.00 | 0.00 | 80 | 1010.3 |
| 20260502022330 | 5 | 13 | 0.0 | 0.0 | 0.00 | 0.00 | 0.00 | 80 | 1010.3 |
| 20260502020059 | 5 | 13 | 0.0 | 0.0 | 0.00 | 0.00 | 0.00 | 79 | 1010.4 |
| 20260502014556 | 5 | 13 | 0.0 | 0.0 | 0.00 | 0.00 | 0.00 | 78 | 1010.4 |
| 20260502013054 | 6 | 13 | 0.0 | 0.0 | 0.00 | 0.00 | 0.00 | 78 | 1010.4 |
| 20260502011553 | 6 | 13 | 0.0 | 0.0 | 0.00 | 0.00 | 0.00 | 77 | 1010.2 |
| 20260502010053 | 6 | 13 | 0.0 | 0.0 | 0.00 | 0.00 | 0.00 | 76 | 1010.1 |
| 20260502004553 | 6 | 13 | 0.0 | 0.0 | 0.00 | 0.00 | 0.00 | 75 | 1010.0 |
| 20260502003054 | 7 | 13 | 0.0 | 0.0 | 0.00 | 0.00 | 0.00 | 72 | 1009.8 |
| 20260502001554 | 8 | 13 | 0.0 | 0.0 | 0.00 | 0.03 | 0.00 | 71 | 1009.6 |
| 20260502000053 | 9 | 13 | 0.0 | 0.0 | 0.00 | 0.03 | 0.00 | 68 | 1009.1 |
| 20260501234555 | 10 | 13 | 0.0 | 0.0 | 0.00 | 0.05 | 0.00 | 66 | 1008.9 |
| 20260501233051 | 10 | 13 | 0.0 | 0.0 | 0.00 | 0.05 | 0.00 | 62 | 1008.7 |
| 20260501231550 | 11 | 13 | 0.0 | 0.0 | 0.00 | 0.05 | 0.00 | 58 | 1008.5 |
| 20260501230049 | 11 | 13 | 0.0 | 0.0 | 0.00 | 0.05 | 0.00 | 58 | 1008.4 |
| 20260501224549 | 12 | 13 | 0.0 | 0.0 | 0.00 | 0.08 | 0.00 | 47 | 1008.4 |
| 20260501223047 | 12 | 13 | 0.0 | 0.0 | 0.00 | 0.15 | 0.00 | 45 | 1008.3 |
| 20260501222317 | 12 | 5 | 1.6 | 6.4 | 0.00 | 0.30 | 0.00 | 42 | 1008.3 |
| 20260501220058 | 12 | 296 | 0.0 | 3.2 | 0.00 | 0.43 | 0.00 | 38 | 1008.2 |
| 20260501214543 | 12 | 17 | 3.2 | 9.7 | 0.00 | 0.48 | 0.00 | 39 | 1008.4 |
| 20260501213037 | 12 | 330 | 3.2 | 8.0 | 0.00 | 0.48 | 0.00 | 39 | 1008.3 |
| 20260501212308 | 13 | 319 | 3.2 | 16.1 | 0.00 | 0.51 | 0.00 | 41 | 1008.3 |
| 20260501210031 | 13 | 292 | 4.8 | 14.5 | 0.00 | 0.51 | 0.00 | 36 | 1008.2 |
| 20260501204532 | 13 | 323 | 4.8 | 19.3 | 0.00 | 0.51 | 0.00 | 38 | 1008.0 |
| 20260501203025 | 12 | 355 | 6.4 | 12.9 | 0.00 | 0.51 | 0.00 | 40 | 1008.1 |
| 20260501201525 | 12 | 15 | 3.2 | 16.1 | 0.00 | 0.51 | 0.00 | 38 | 1008.1 |
| 20260501200020 | 12 | 258 | 3.2 | 17.7 | 0.00 | 0.51 | 0.00 | 37 | 1008.3 |
| 20260501194519 | 12 | 15 | 4.8 | 17.7 | 0.00 | 0.51 | 0.00 | 41 | 1008.3 |
| 20260501193013 | 12 | 52 | 4.8 | 12.9 | 0.00 | 0.51 | 0.00 | 40 | 1008.2 |
| 20260501191514 | 12 | 268 | 3.2 | 17.7 | 0.00 | 0.51 | 0.00 | 39 | 1008.4 |
| 20260501190735 | 13 | 98 | 6.4 | 16.1 | 0.00 | 0.53 | 0.00 | 38 | 1008.5 |
| 20260501184507 | 13 | 317 | 4.8 | 12.9 | 0.00 | 0.53 | 0.00 | 40 | 1008.6 |